Location: Dumpton Point
(51.3500°N, 1.4433°E)
Time: 04:22:33
(UTC+00:00)

Altair - Pass Details

Date: 02 October 2022
Orbit: 1501 x 1682 km, 47.2° (Epoch: 04 December)

Event Time Altitude Azimuth Distance (km) Brightness Sun altitude
Rises 06:59:12 0° 251° (WSW) 4,816 9.6 8.8°
Reaches altitude 10° 07:02:17 10° 249° (WSW) 3,854 9.2 9.2°
Maximum altitude 07:12:04 68° 170° (S) 1,769 8.2 10.7°
Drops below altitude 10° 07:22:06 10° 90° (E) 3,947 11.2 12.2°
Sets 07:25:18 0° 88° (E) 4,937 11.5 12.6°
